Tracking 19847 objects as of 17-Sep-2019
HD Live streaming from Space Station
objects crossing your sky now

SL-16 DEB

Track SL-16 DEB now!
10-day predictions


NORAD ID: 24284
Int'l Code: 1995-058G
Perigee: 826.0 km
Apogee: 847.6 km
Inclination: 70.9 °
Period: 101.5 minutes
Semi major axis: 7207 km
RCS: 0.041 m2 (small)
Launch date: October 31, 1995
Source: Commonwealth of Independent States (former USSR) (CIS)
Launch site: TYURATAM MISSILE AND SPACE COMPLEX (TTMTR)

Note: This is SATELLITE DEBRIS
aabbcc
Your satellite tracking list
Your tracking list is empty




NASA's NSSDC Master Catalog

Two Line Element Set (TLE):
1 24284U 95058G   19259.40007845 -.00000061  00000-0 -56298-5 0  9995
2 24284  70.8610 252.8822 0015008 253.7527 106.1946 14.18731383234227
Source of the keplerian elements: AFSPC